Tracking 19709 objects as of 17-Jun-2019
HD Live streaming from Space Station
objects crossing your sky now

TITAN 3C TRANSTAGE DEB

Track TITAN 3C TRANSTAGE DEB now!


NORAD ID: 5515
Int'l Code: 1965-108M
Perigee: 1,122.7 km
Apogee: 30,160.7 km
Inclination: 27.7 °
Period: 541.7 minutes
Semi major axis: 22012 km
RCS: 0.0962 m2 (small)
Launch date: December 21, 1965
Source: United States (US)
Launch site: AIR FORCE EASTERN TEST RANGE (AFETR)

Note: This is SATELLITE DEBRIS
aabbcc
Your satellite tracking list
Your tracking list is empty




NASA's NSSDC Master Catalog

Two Line Element Set (TLE):
1  5515U 65108M   19064.52801733 -.00000170 +00000-0 +00000-0 0  9994
2  5515 027.6756 194.4218 6595740 172.2353 334.8999 02.65823240148515
Source of the keplerian elements: AFSPC